STARLINK-33662, 63285

Orbit data source: Space-Track

STARLINK-33662, 63285 is a payload satellite owned by SpaceX/Seattle (US) in LEO that was launched on Sat, 15 Mar 2025 UTC via an FALCON 9 launch vehicle from the Air Force Eastern Test Range (AFETR). Payload-class satellites include a variety of spacecraft equipped with specific instruments for various scientific and technological missions. These include communications satellites like Starlink; space stations such as the ISS; scientific satellites like the Hubble; Earth observation satellites from companies like Planet Labs, Umbra, and HawkEye 360; GPS; miniature CubeSats for education and research; and military/defense satellites.

Loading next visibility...
Identifier
63285, 2025-053W
Orbit
LEO
Country
Flag of USUS
Related business
Manufacturer
SpaceX/Seattle
Mission
Operational Commercial Communications
Bus & Motor
STARLINK V2MO, Unknown motor
Mass
575 kg wet, ~530 kg dry
Launch date (UTC)
2025-03-15 (1 year ago)
Launch vehicle
FALCON 9
Launch site
Air Force Eastern Test Range (AFETR)
Object type
Payload
Rocket body
Debris
Shape & HBR
Box + 2 Pan, 17.7 m
Radar Cross Section
36.964 m², Large (>1 m²)

Expand to show TLE details & history
Last TLE update: 14 hours ago

TLE from 14 hours ago
0 STARLINK-33662
1 63285U 25053W   26171.27336904  .00022865  00000-0  83795-3 0  9998
2 63285  43.0007  22.3198 0002035 279.4773  80.5849 15.27575286 71880
Epoch: 2026-06-20T06:33Z
TLE epoch observation values (Epoch: 2026-06-20T06:33:39.085Z)
Latitude
0.00003°
Longitude
15.41662°
Altitude
482.611 km
Speed
7.626 km/s
True Right ascension
01h 29m 16s
True Declination
0° 00' 00"
Sunlit
Object was in daylight at epoch
Visualization orbit readout
Latitude
Unknown
Longitude
Unknown
Altitude
Unknown
Speed
Unknown
Apparent Right ascension
Unknown
Apparent Declination
Unknown
Sunlit
N/A
Visualization observer readout
Local Sidereal Time
07:12:23
Azimuth
Unknown
Elevation
Unknown
Doppler factor
Unknown
Orbital elements
Apogee altitude
486.405 km
Perigee altitude
483.612 km
Semi-major axis
6,863.145 km
Eccentricity
0.0002
Inclination
43.0007°
RAAN
22.3198°
Arg. of periapsis
279.4773°
True anomaly
80.60791°
Mean anomaly
80.5849°
Eccentric anomaly
80.5964°
Mean motion
3.81732 °/min
Orbital period
94.31 mins
BSTAR
0.00083795
Loading maneuver chart data...
Computing Atmospheric mass density...
Loading historical data...
Loading historical data...
Loading historical data...
Loading historical data...
Loading historical data...
Loading historical data...
Loading historical data...

Documentation

Showing up to 5 results
|